Acapulco, Mexico

4:48 AM CST on January 16, 2018 (GMT -0600)
Gen Juan N Alvarez International

Weather History for MMAA - October, 2012

Change the Weather History Date:

Friday, October 5, 2012

  Actual Average Record
Temperature  
Mean Temperature 84 °F -  
Max Temperature 91 °F 86 °F 94 °F (2015)
Min Temperature 77 °F 75 °F 73 °F (2004)
Cooling Degree Days 19    
Growing Degree Days 34 (Base 50)    
Moisture  
Dew Point 76 °F    
Average Humidity 76    
Maximum Humidity 94    
Minimum Humidity 58    
Precipitation  
Precipitation 0.01 in - - ()
Sea Level Pressure  
Sea Level Pressure 29.89 in    
Wind  
Wind Speed 3 mph ()    
Max Wind Speed 14 mph    
Max Gust Speed -    
Visibility 8.3 miles    
Events Rain    
Averages and records for this station are not official NWS values.
T = Trace of Precipitation, MM = Missing Value Source: Averaged Metar Reports

Daily Weather History Graph

Daily Weather History Graph

Search for Another Location

Airport or City:

Trip Planner

Search our weather history database for the weather conditions in past years. The results will help you decide how hot, cold, wet, or windy it might be!

Date:

Astronomy

Oct. 05, 2012 Rise Set
Actual Time 7:29 AM CDT 7:24 PM CDT
Civil Twilight 7:08 AM CDT 7:45 PM CDT
Nautical Twilight 6:43 AM CDT 8:11 PM CDT
Astronomical Twilight 6:18 AM CDT 8:36 PM CDT
Moon 11:29 PM CDT (10/5) 11:58 AM CDT (10/5)
Length of Visible Light 12h 37m
Length of Day
11h 54m
Waning Gibbous, 74% of the Moon is Illuminated
Oct 5
Waning Gibbous
Oct 8
Last Quarter
Oct 15
New
Oct 21
First Quarter
Oct 29
Full

Hourly Weather History & Observations

Time (CDT) Temp. Heat Index Dew Point Humidity Pressure Visibility Wind Dir Wind Speed Gust Speed Precip Events Conditions
12:45 AM 80.6 °F 87.1 °F 77.0 °F 89% 29.99 in 8.0 mi Calm Calm - N/A   Overcast
12:50 AM 81 °F - 78 °F 88% 29.98 in 6 mi NNW 2.2 mph - -   Overcast
1:45 AM 80.6 °F 87.1 °F 77.0 °F 89% 29.96 in 8.0 mi Calm Calm - N/A   Overcast
2:45 AM 80.6 °F 87.1 °F 77.0 °F 89% 29.95 in 8.0 mi Calm Calm - N/A   Overcast
3:50 AM 80 °F - 78 °F 91% 29.92 in 6 mi NW 2.2 mph - -   Overcast
3:56 AM 80.6 °F 87.1 °F 77.0 °F 89% 29.93 in 8.0 mi Calm Calm - N/A   Overcast
4:45 AM 80.6 °F 87.1 °F 77.0 °F 89% 29.90 in 6.0 mi Calm Calm - N/A Rain Light Rain
5:45 AM 80.6 °F 87.1 °F 77.0 °F 89% 29.90 in 8.0 mi Calm Calm - N/A   Overcast
6:45 AM 80.6 °F 87.1 °F 77.0 °F 89% 29.93 in 8.0 mi Calm Calm - N/A   Mostly Cloudy
6:55 AM 78 °F - 76 °F 94% 29.91 in 6 mi NW 2.2 mph - -   Scattered Clouds
7:52 AM 78.8 °F - 75.2 °F 89% 29.92 in 8.0 mi Calm Calm - N/A   Mostly Cloudy
8:44 AM 80.6 °F 85.4 °F 73.4 °F 79% 29.93 in 8.0 mi Calm Calm - N/A   Mostly Cloudy
9:46 AM 82.4 °F 89.5 °F 75.2 °F 79% 29.94 in 10.0 mi Calm Calm - N/A   Scattered Clouds
9:50 AM 85 °F - 77 °F 70% 29.94 in 12 mi North 2.2 mph - -   Partly Cloudy
10:42 AM 86.0 °F 95.1 °F 75.2 °F 70% 29.94 in 8.0 mi WSW 6.9 mph - N/A   Scattered Clouds
11:46 AM 89.6 °F 102.2 °F 77.0 °F 66% 29.94 in 8.0 mi WSW 11.5 mph - N/A   Scattered Clouds
12:44 PM 89.6 °F 99.8 °F 75.2 °F 62% 29.89 in 10.0 mi WSW 9.2 mph - N/A   Scattered Clouds
12:50 PM 89 °F - 76 °F 58% 29.91 in 12 mi West 6.7 mph - -   Scattered Clouds
1:42 PM 91.4 °F 102.5 °F 75.2 °F 59% 29.89 in 8.0 mi WSW 11.5 mph - N/A   Scattered Clouds
2:43 PM 91.4 °F 102.5 °F 75.2 °F 59% 29.87 in 8.0 mi WSW 10.4 mph - N/A   Scattered Clouds
3:42 PM 91.4 °F 102.5 °F 75.2 °F 59% 29.86 in 8.0 mi WSW 11.5 mph - N/A   Scattered Clouds
3:50 PM 90 °F - 78 °F 61% 29.83 in 12 mi West 8.9 mph - -   Scattered Clouds
4:42 PM 91.4 °F 105.1 °F 77.0 °F 63% 29.82 in 8.0 mi WSW 13.8 mph - N/A   Scattered Clouds
5:44 PM 87.8 °F 97.6 °F 75.2 °F 66% 29.81 in 8.0 mi WSW 11.5 mph - N/A   Scattered Clouds
6:48 PM 87.8 °F 97.6 °F 75.2 °F 66% 29.80 in 8.0 mi WSW 11.5 mph - N/A   Scattered Clouds
7:00 PM 85 °F - 76 °F 68% 29.83 in 12 mi West 6.7 mph - -   Scattered Clouds
7:46 PM 84.2 °F 94.1 °F 77.0 °F 79% 29.83 in 8.0 mi West 5.8 mph - N/A   Scattered Clouds
8:45 PM 84.2 °F 92.3 °F 75.2 °F 74% 29.85 in 8.0 mi West 11.5 mph - N/A   Scattered Clouds
9:42 PM 84.2 °F 94.1 °F 77.0 °F 79% 29.81 in 8.0 mi WNW 9.2 mph - N/A   Scattered Clouds
9:50 PM 83 °F - 77 °F 77% 29.87 in 6 mi WNW 4.5 mph - -   Partly Cloudy
10:42 PM 84.2 °F 94.1 °F 77.0 °F 79% 29.88 in 8.0 mi WNW 6.9 mph - N/A   Scattered Clouds
11:42 PM 82.4 °F 90.9 °F 77.0 °F 84% 29.88 in 8.0 mi Calm Calm - N/A   Partly Cloudy